Weather History for KGPT - October, 2012

Change the Weather History Date:

Sunday, October 14, 2012

  Actual Average Record
Temperature  
Mean Temperature 80 °F -  
Max Temperature 84 °F 79 °F 89 °F (1968)
Min Temperature 75 °F 57 °F 41 °F (1977)
Cooling Degree Days 14    
Growing Degree Days 30 (Base 50)    
Moisture  
Dew Point 69 °F    
Average Humidity 73    
Maximum Humidity 87    
Minimum Humidity 56    
Precipitation  
Precipitation 0.00 in - - ()
Sea Level Pressure  
Sea Level Pressure 30.06 in    
Wind  
Wind Speed 8 mph (South)    
Max Wind Speed 13 mph    
Max Gust Speed -    
Visibility 10 miles    
Events      
Averages and records for this station are not official NWS values.
T = Trace of Precipitation, MM = Missing Value Source: NWS Daily Summary

Daily Weather History Graph

Daily Weather History Graph

Search for Another Location

Airport or City:

Trip Planner

Search our weather history database for the weather conditions in past years. The results will help you decide how hot, cold, wet, or windy it might be!

Date:

Astronomy

Oct. 14, 2012 Rise Set
Actual Time 6:58 AM CDT 6:25 PM CDT
Civil Twilight 6:33 AM CDT 6:49 PM CDT
Nautical Twilight 6:06 AM CDT 7:17 PM CDT
Astronomical Twilight 5:38 AM CDT 7:45 PM CDT
Moon 5:58 AM CDT (10/14) 5:46 PM CDT (10/14)
Length of Visible Light 12h 15m
Length of Day
11h 27m
Waning Crescent, 1% of the Moon is Illuminated
Oct 14
Waning Crescent
Oct 15
New
Oct 21
First Quarter
Oct 29
Full
Nov 6
Last Quarter

Hourly Weather History & Observations

Time (CDT) Temp. Heat Index Dew Point Humidity Pressure Visibility Wind Dir Wind Speed Gust Speed Precip Events Conditions
12:53 AM 75.9 °F - 71.1 °F 85% 30.11 in 9.0 mi SSE 9.2 mph - N/A   Partly Cloudy
1:53 AM 77.0 °F - 69.1 °F 76% 30.09 in 10.0 mi SSE 11.5 mph - N/A   Clear
2:53 AM 75.9 °F - 69.1 °F 79% 30.07 in 10.0 mi SSE 9.2 mph - N/A   Clear
3:53 AM 75.9 °F - 66.9 °F 74% 30.06 in 10.0 mi SSE 11.5 mph - N/A   Clear
4:53 AM 77.0 °F - 68.0 °F 74% 30.06 in 10.0 mi SSE 12.7 mph - N/A   Clear
5:53 AM 77.0 °F - 69.1 °F 76% 30.06 in 10.0 mi SSE 9.2 mph - N/A   Scattered Clouds
6:53 AM 75.9 °F - 69.1 °F 79% 30.07 in 10.0 mi South 5.8 mph - N/A   Scattered Clouds
7:53 AM 77.0 °F - 70.0 °F 79% 30.09 in 10.0 mi South 4.6 mph - N/A   Clear
8:53 AM 79.0 °F - 70.0 °F 74% 30.13 in 10.0 mi South 4.6 mph - N/A   Clear
9:53 AM 81.0 °F 84.1 °F 69.1 °F 67% 30.14 in 10.0 mi SSW 5.8 mph - N/A   Partly Cloudy
10:53 AM 82.0 °F 84.9 °F 68.0 °F 62% 30.14 in 10.0 mi SSW 6.9 mph - N/A   Scattered Clouds
11:53 AM 82.9 °F 85.8 °F 68.0 °F 60% 30.14 in 10.0 mi SSE 6.9 mph - N/A   Clear
12:53 PM 84.0 °F 86.5 °F 66.9 °F 56% 30.11 in 10.0 mi South 5.8 mph - N/A   Partly Cloudy
1:53 PM 84.0 °F 86.5 °F 66.9 °F 56% 30.07 in 10.0 mi South 5.8 mph - N/A   Scattered Clouds
2:53 PM 84.2 °F 88.4 °F 69.8 °F 62% 30.03 in 10.0 mi South 9.2 mph - N/A   Scattered Clouds
3:53 PM 82.9 °F 86.5 °F 69.1 °F 63% 30.00 in 10.0 mi SSE 11.5 mph - N/A   Clear
4:53 PM 81.0 °F 84.1 °F 69.1 °F 67% 30.00 in 10.0 mi South 6.9 mph - N/A   Clear
5:53 PM 80.1 °F 82.9 °F 69.1 °F 69% 30.00 in 10.0 mi South 5.8 mph - N/A   Clear
6:53 PM 77.0 °F - 71.1 °F 82% 30.01 in 10.0 mi Calm Calm - N/A   Clear
7:53 PM 77.0 °F - 71.1 °F 82% 30.02 in 10.0 mi SSE 3.5 mph - N/A   Clear
8:53 PM 77.0 °F - 71.1 °F 82% 30.01 in 10.0 mi South 5.8 mph - N/A   Clear
9:53 PM 75.9 °F - 71.1 °F 85% 30.01 in 10.0 mi South 4.6 mph - N/A   Clear
10:53 PM 75.9 °F - 72.0 °F 87% 30.01 in 10.0 mi South 3.5 mph - N/A   Clear
11:53 PM 75.9 °F - 72.0 °F 87% 30.00 in 10.0 mi SSW 3.5 mph - N/A   Clear